Time,TemperatureF,DewpointF,PressureIn,WindDirection,WindDirectionDegrees,WindSpeedMPH,WindSpeedGustMPH,Humidity,HourlyPrecipIn,Conditions,Clouds,dailyrainin,SoftwareType,DateUTC
2013-05-04 00:00:00,50.5,43.6,30.20,ENE,75,0.0,4.0,77,0.00,,,0.00,WUHU216DAVISVP2,2013-05-04 04:00:00,
2013-05-04 00:01:00,50.5,43.6,30.20,ENE,75,0.0,4.0,77,0.00,,,0.00,WUHU216DAVISVP2,2013-05-04 04:01:00,
2013-05-04 00:06:00,50.4,43.5,30.20,East,86,0.0,7.0,77,0.00,,,0.00,WUHU216DAVISVP2,2013-05-04 04:06:00,
2013-05-04 00:11:00,50.4,43.5,30.20,East,86,0.0,7.0,77,0.00,,,0.00,WUHU216DAVISVP2,2013-05-04 04:11:00,
2013-05-04 00:16:00,50.4,43.5,30.20,East,86,0.0,2.0,77,0.00,,,0.00,WUHU216DAVISVP2,2013-05-04 04:16:00,
2013-05-04 00:23:00,50.2,43.7,30.20,North,357,0.0,1.0,78,0.00,,,0.00,WUHU216DAVISVP2,2013-05-04 04:23:00,
2013-05-04 00:28:00,50.1,43.6,30.20,East,79,0.0,4.0,78,0.00,,,0.00,WUHU216DAVISVP2,2013-05-04 04:28:00,
2013-05-04 00:33:00,50.1,43.9,30.20,ENE,62,0.0,4.0,79,0.00,,,0.00,WUHU216DAVISVP2,2013-05-04 04:33:00,
2013-05-04 00:38:00,50.1,43.9,30.20,ENE,65,0.0,7.0,79,0.00,,,0.00,WUHU216DAVISVP2,2013-05-04 04:38:00,
2013-05-04 00:43:00,49.9,43.7,30.20,ENE,78,0.0,7.0,79,0.00,,,0.00,WUHU216DAVISVP2,2013-05-04 04:43:00,
2013-05-04 00:48:00,49.9,44.0,30.19,ENE,78,0.0,7.0,80,0.00,,,0.00,WUHU216DAVISVP2,2013-05-04 04:48:00,
2013-05-04 00:53:00,49.9,44.0,30.19,ENE,78,0.0,2.0,80,0.00,,,0.00,WUHU216DAVISVP2,2013-05-04 04:53:00,
2013-05-04 00:58:00,49.9,44.0,30.19,East,88,0.0,6.0,80,0.00,,,0.00,WUHU216DAVISVP2,2013-05-04 04:58:00,
2013-05-04 01:03:00,49.8,43.9,30.19,East,85,0.0,6.0,80,0.00,,,0.00,WUHU216DAVISVP2,2013-05-04 05:03:00,
2013-05-04 01:08:00,49.8,43.9,30.19,NNE,25,0.0,4.0,80,0.00,,,0.00,WUHU216DAVISVP2,2013-05-04 05:08:00,
2013-05-04 01:13:00,49.8,43.9,30.19,ENE,66,0.0,8.0,80,0.00,,,0.00,WUHU216DAVISVP2,2013-05-04 05:13:00,
2013-05-04 01:18:00,49.6,44.0,30.18,East,79,0.0,8.0,81,0.00,,,0.00,WUHU216DAVISVP2,2013-05-04 05:18:00,
2013-05-04 01:23:00,49.6,44.0,30.18,ESE,104,2.0,6.0,81,0.00,,,0.00,WUHU216DAVISVP2,2013-05-04 05:23:00,
2013-05-04 01:28:00,49.6,44.0,30.18,ENE,61,0.0,6.0,81,0.00,,,0.00,WUHU216DAVISVP2,2013-05-04 05:28:00,
2013-05-04 01:33:00,49.6,44.0,30.17,ESE,121,0.0,6.0,81,0.00,,,0.00,WUHU216DAVISVP2,2013-05-04 05:33:00,
2013-05-04 01:38:00,49.5,44.2,30.17,ESE,120,0.0,6.0,82,0.00,,,0.00,WUHU216DAVISVP2,2013-05-04 05:38:00,
2013-05-04 01:43:00,49.5,44.2,30.17,ENE,73,1.0,2.0,82,0.00,,,0.00,WUHU216DAVISVP2,2013-05-04 05:43:00,
2013-05-04 01:48:00,49.5,44.2,30.17,East,96,1.0,4.0,82,0.00,,,0.00,WUHU216DAVISVP2,2013-05-04 05:48:00,
2013-05-04 01:53:00,49.5,44.2,30.17,ENE,72,2.0,7.0,82,0.00,,,0.00,WUHU216DAVISVP2,2013-05-04 05:53:00,
2013-05-04 01:58:00,49.5,44.2,30.17,East,83,1.0,7.0,82,0.00,,,0.00,WUHU216DAVISVP2,2013-05-04 05:58:00,
2013-05-04 02:03:00,49.4,44.2,30.17,East,89,0.0,8.0,82,0.00,,,0.00,WUHU216DAVISVP2,2013-05-04 06:03:00,
2013-05-04 02:08:00,49.4,44.2,30.17,East,90,0.0,8.0,82,0.00,,,0.00,WUHU216DAVISVP2,2013-05-04 06:08:00,
2013-05-04 02:13:00,49.4,44.5,30.17,East,86,0.0,4.0,83,0.00,,,0.00,WUHU216DAVISVP2,2013-05-04 06:13:00,
2013-05-04 02:18:00,49.5,44.6,30.16,SE,133,0.0,2.0,83,0.00,,,0.00,WUHU216DAVISVP2,2013-05-04 06:18:00,
2013-05-04 02:23:00,49.4,44.5,30.16,North,0,4.0,4.0,83,0.00,,,0.00,WUHU216DAVISVP2,2013-05-04 06:23:00,
2013-05-04 02:28:00,49.4,44.5,30.16,North,0,0.0,4.0,83,0.00,,,0.00,WUHU216DAVISVP2,2013-05-04 06:28:00,
2013-05-04 02:33:00,49.5,44.6,30.16,NE,42,0.0,2.0,83,0.00,,,0.00,WUHU216DAVISVP2,2013-05-04 06:33:00,
2013-05-04 02:38:00,49.4,44.5,30.16,ENE,71,0.0,4.0,83,0.00,,,0.00,WUHU216DAVISVP2,2013-05-04 06:38:00,
2013-05-04 02:43:00,49.4,44.5,30.16,NE,48,0.0,4.0,83,0.00,,,0.00,WUHU216DAVISVP2,2013-05-04 06:43:00,
2013-05-04 02:48:00,49.4,44.5,30.16,ESE,104,0.0,4.0,83,0.00,,,0.00,WUHU216DAVISVP2,2013-05-04 06:48:00,
2013-05-04 02:53:00,49.5,44.6,30.16,NE,35,0.0,6.0,83,0.00,,,0.00,WUHU216DAVISVP2,2013-05-04 06:53:00,
2013-05-04 02:58:00,49.5,44.6,30.16,ENE,75,0.0,6.0,83,0.00,,,0.00,WUHU216DAVISVP2,2013-05-04 06:58:00,
2013-05-04 03:03:00,49.4,44.5,30.15,North,357,0.0,1.0,83,0.00,,,0.00,WUHU216DAVISVP2,2013-05-04 07:03:00,
2013-05-04 03:08:00,49.5,44.6,30.15,ENE,61,0.0,2.0,83,0.00,,,0.00,WUHU216DAVISVP2,2013-05-04 07:08:00,
2013-05-04 03:13:00,49.5,44.6,30.15,ENE,61,0.0,2.0,83,0.00,,,0.00,WUHU216DAVISVP2,2013-05-04 07:13:00,
2013-05-04 03:18:00,49.5,44.6,30.15,NNE,20,0.0,6.0,83,0.00,,,0.00,WUHU216DAVISVP2,2013-05-04 07:18:00,
2013-05-04 03:23:00,49.5,44.6,30.15,ENE,68,0.0,6.0,83,0.00,,,0.00,WUHU216DAVISVP2,2013-05-04 07:23:00,
2013-05-04 03:28:00,49.4,44.5,30.15,ENE,62,0.0,4.0,83,0.00,,,0.00,WUHU216DAVISVP2,2013-05-04 07:28:00,
2013-05-04 03:33:00,49.4,44.5,30.15,NNE,32,1.0,6.0,83,0.00,,,0.00,WUHU216DAVISVP2,2013-05-04 07:33:00,
2013-05-04 03:38:00,49.4,44.5,30.15,North,349,0.0,6.0,83,0.00,,,0.00,WUHU216DAVISVP2,2013-05-04 07:38:00,
2013-05-04 03:43:00,49.4,44.5,30.15,East,92,0.0,4.0,83,0.00,,,0.00,WUHU216DAVISVP2,2013-05-04 07:43:00,
2013-05-04 03:48:00,49.4,44.8,30.15,East,79,0.0,7.0,84,0.00,,,0.00,WUHU216DAVISVP2,2013-05-04 07:48:00,
2013-05-04 03:53:00,49.4,44.8,30.15,North,359,0.0,7.0,84,0.00,,,0.00,WUHU216DAVISVP2,2013-05-04 07:53:00,
2013-05-04 03:58:00,49.4,44.8,30.15,ESE,121,0.0,7.0,84,0.00,,,0.00,WUHU216DAVISVP2,2013-05-04 07:58:00,
2013-05-04 04:03:00,49.4,44.8,30.15,ESE,104,0.0,4.0,84,0.00,,,0.00,WUHU216DAVISVP2,2013-05-04 08:03:00,
2013-05-04 04:10:00,49.2,44.6,30.15,NW,312,4.0,7.0,84,0.00,,,0.00,WUHU216DAVISVP2,2013-05-04 08:10:00,
2013-05-04 04:15:00,49.2,44.6,30.15,East,90,0.0,7.0,84,0.00,,,0.00,WUHU216DAVISVP2,2013-05-04 08:15:00,
2013-05-04 04:21:00,49.2,44.6,30.15,East,79,0.0,6.0,84,0.00,,,0.00,WUHU216DAVISVP2,2013-05-04 08:21:00,
2013-05-04 04:26:00,49.2,44.6,30.15,NE,35,0.0,6.0,84,0.00,,,0.00,WUHU216DAVISVP2,2013-05-04 08:26:00,
2013-05-04 04:31:00,49.4,44.8,30.15,ENE,75,2.0,6.0,84,0.00,,,0.00,WUHU216DAVISVP2,2013-05-04 08:31:00,
2013-05-04 04:36:00,49.2,44.6,30.15,ENE,73,0.0,8.0,84,0.00,,,0.00,WUHU216DAVISVP2,2013-05-04 08:36:00,
2013-05-04 04:41:00,49.2,44.9,30.15,East,100,2.0,9.0,85,0.00,,,0.00,WUHU216DAVISVP2,2013-05-04 08:41:00,
2013-05-04 04:46:00,49.2,44.9,30.14,SE,144,0.0,9.0,85,0.00,,,0.00,WUHU216DAVISVP2,2013-05-04 08:46:00,
2013-05-04 04:51:00,49.2,44.9,30.14,ENE,71,0.0,8.0,85,0.00,,,0.00,WUHU216DAVISVP2,2013-05-04 08:51:00,
2013-05-04 04:56:00,49.2,44.9,30.14,ENE,62,0.0,6.0,85,0.00,,,0.00,WUHU216DAVISVP2,2013-05-04 08:56:00,
2013-05-04 05:01:00,49.2,44.9,30.15,ENE,68,1.0,2.0,85,0.00,,,0.00,WUHU216DAVISVP2,2013-05-04 09:01:00,
2013-05-04 05:06:00,49.4,45.1,30.15,NE,55,0.0,2.0,85,0.00,,,0.00,WUHU216DAVISVP2,2013-05-04 09:06:00,
2013-05-04 05:11:00,49.4,45.1,30.15,East,96,1.0,4.0,85,0.00,,,0.00,WUHU216DAVISVP2,2013-05-04 09:11:00,
2013-05-04 05:16:00,49.4,45.1,30.15,East,95,0.0,4.0,85,0.00,,,0.00,WUHU216DAVISVP2,2013-05-04 09:16:00,
2013-05-04 05:21:00,49.4,45.1,30.15,ENE,64,0.0,2.0,85,0.00,,,0.00,WUHU216DAVISVP2,2013-05-04 09:21:00,
2013-05-04 05:26:00,49.4,45.1,30.15,NNW,347,0.0,2.0,85,0.00,,,0.00,WUHU216DAVISVP2,2013-05-04 09:26:00,
2013-05-04 05:31:00,49.4,45.1,30.15,East,99,0.0,2.0,85,0.00,,,0.00,WUHU216DAVISVP2,2013-05-04 09:31:00,
2013-05-04 05:36:00,49.4,45.1,30.15,North,357,0.0,6.0,85,0.00,,,0.00,WUHU216DAVISVP2,2013-05-04 09:36:00,
2013-05-04 05:41:00,49.4,45.1,30.15,North,357,0.0,6.0,85,0.00,,,0.00,WUHU216DAVISVP2,2013-05-04 09:41:00,
2013-05-04 05:46:00,49.5,45.2,30.15,East,85,0.0,6.0,85,0.00,,,0.00,WUHU216DAVISVP2,2013-05-04 09:46:00,
2013-05-04 05:51:00,49.5,45.2,30.15,East,85,0.0,6.0,85,0.00,,,0.00,WUHU216DAVISVP2,2013-05-04 09:51:00,
2013-05-04 05:56:00,49.5,45.2,30.15,East,85,0.0,8.0,85,0.00,,,0.00,WUHU216DAVISVP2,2013-05-04 09:56:00,
2013-05-04 06:01:00,49.5,45.2,30.15,North,0,0.0,8.0,85,0.00,,,0.00,WUHU216DAVISVP2,2013-05-04 10:01:00,
2013-05-04 06:06:00,49.6,45.3,30.15,North,11,0.0,4.0,85,0.00,,,0.00,WUHU216DAVISVP2,2013-05-04 10:06:00,
2013-05-04 06:11:00,49.6,45.3,30.15,NE,41,0.0,1.0,85,0.00,,,0.00,WUHU216DAVISVP2,2013-05-04 10:11:00,
2013-05-04 06:16:00,49.5,45.2,30.15,West,280,0.0,4.0,85,0.00,,,0.00,WUHU216DAVISVP2,2013-05-04 10:16:00,
2013-05-04 06:21:00,49.6,45.3,30.15,NNE,13,0.0,4.0,85,0.00,,,0.00,WUHU216DAVISVP2,2013-05-04 10:21:00,
2013-05-04 06:26:00,49.6,45.3,30.15,NNE,13,0.0,2.0,85,0.00,,,0.00,WUHU216DAVISVP2,2013-05-04 10:26:00,
2013-05-04 06:31:00,49.5,45.2,30.16,NE,54,0.0,2.0,85,0.00,,,0.00,WUHU216DAVISVP2,2013-05-04 10:31:00,
2013-05-04 06:36:00,49.6,45.6,30.16,North,3,0.0,2.0,86,0.00,,,0.00,WUHU216DAVISVP2,2013-05-04 10:36:00,
2013-05-04 06:41:00,49.5,45.5,30.16,ESE,106,0.0,2.0,86,0.00,,,0.00,WUHU216DAVISVP2,2013-05-04 10:41:00,
2013-05-04 06:46:00,49.5,45.5,30.16,NNW,343,0.0,2.0,86,0.00,,,0.00,WUHU216DAVISVP2,2013-05-04 10:46:00,
2013-05-04 06:51:00,49.5,45.5,30.16,ENE,72,0.0,6.0,86,0.00,,,0.00,WUHU216DAVISVP2,2013-05-04 10:51:00,
2013-05-04 06:57:00,49.6,45.6,30.16,North,8,0.0,6.0,86,0.00,,,0.00,WUHU216DAVISVP2,2013-05-04 10:57:00,
2013-05-04 07:02:00,49.6,45.6,30.16,ENE,73,0.0,6.0,86,0.00,,,0.00,WUHU216DAVISVP2,2013-05-04 11:02:00,
2013-05-04 07:08:00,49.6,45.6,30.16,East,83,0.0,6.0,86,0.00,,,0.00,WUHU216DAVISVP2,2013-05-04 11:08:00,
2013-05-04 07:13:00,49.6,45.6,30.16,ENE,59,0.0,8.0,86,0.00,,,0.00,WUHU216DAVISVP2,2013-05-04 11:13:00,
2013-05-04 07:18:00,49.8,45.8,30.16,North,7,0.0,8.0,86,0.00,,,0.00,WUHU216DAVISVP2,2013-05-04 11:18:00,
2013-05-04 07:23:00,49.6,45.6,30.16,East,95,0.0,4.0,86,0.00,,,0.00,WUHU216DAVISVP2,2013-05-04 11:23:00,
2013-05-04 07:28:00,49.6,45.6,30.16,ENE,65,0.0,4.0,86,0.00,,,0.00,WUHU216DAVISVP2,2013-05-04 11:28:00,
2013-05-04 07:33:00,49.8,45.8,30.17,East,82,0.0,4.0,86,0.00,,,0.00,WUHU216DAVISVP2,2013-05-04 11:33:00,
2013-05-04 07:38:00,49.8,45.8,30.17,ESE,106,0.0,4.0,86,0.00,,,0.00,WUHU216DAVISVP2,2013-05-04 11:38:00,
2013-05-04 07:43:00,49.9,45.9,30.17,North,4,0.0,7.0,86,0.00,,,0.00,WUHU216DAVISVP2,2013-05-04 11:43:00,
2013-05-04 07:48:00,49.9,45.9,30.17,East,88,0.0,7.0,86,0.00,,,0.00,WUHU216DAVISVP2,2013-05-04 11:48:00,
2013-05-04 07:54:00,49.8,45.8,30.17,ENE,72,2.0,7.0,86,0.00,,,0.00,WUHU216DAVISVP2,2013-05-04 11:54:00,
2013-05-04 07:59:00,49.9,45.9,30.17,East,83,0.0,7.0,86,0.00,,,0.00,WUHU216DAVISVP2,2013-05-04 11:59:00,
2013-05-04 08:04:00,50.1,46.1,30.17,SE,140,0.0,6.0,86,0.00,,,0.00,WUHU216DAVISVP2,2013-05-04 12:04:00,
2013-05-04 08:09:00,50.1,46.1,30.17,ENE,78,0.0,6.0,86,0.00,,,0.00,WUHU216DAVISVP2,2013-05-04 12:09:00,
2013-05-04 08:15:00,50.1,46.1,30.17,ESE,107,0.0,6.0,86,0.00,,,0.00,WUHU216DAVISVP2,2013-05-04 12:15:00,
2013-05-04 08:20:00,50.2,45.9,30.17,East,82,0.0,6.0,85,0.00,,,0.00,WUHU216DAVISVP2,2013-05-04 12:20:00,
2013-05-04 08:25:00,50.2,46.2,30.17,ENE,73,0.0,4.0,86,0.00,,,0.00,WUHU216DAVISVP2,2013-05-04 12:25:00,
2013-05-04 08:30:00,50.4,46.4,30.17,ENE,72,2.0,4.0,86,0.00,,,0.00,WUHU216DAVISVP2,2013-05-04 12:30:00,
2013-05-04 08:35:00,50.4,46.1,30.17,North,357,0.0,4.0,85,0.00,,,0.00,WUHU216DAVISVP2,2013-05-04 12:35:00,
2013-05-04 08:40:00,50.5,46.5,30.17,NNE,30,4.0,4.0,86,0.00,,,0.00,WUHU216DAVISVP2,2013-05-04 12:40:00,
2013-05-04 08:45:00,50.5,46.5,30.18,NNW,339,0.0,6.0,86,0.00,,,0.00,WUHU216DAVISVP2,2013-05-04 12:45:00,
2013-05-04 08:50:00,50.7,46.3,30.18,ENE,71,0.0,6.0,85,0.00,,,0.00,WUHU216DAVISVP2,2013-05-04 12:50:00,
2013-05-04 08:55:00,50.8,46.4,30.18,North,1,0.0,8.0,85,0.00,,,0.00,WUHU216DAVISVP2,2013-05-04 12:55:00,
2013-05-04 09:00:00,51.0,46.6,30.18,NE,41,0.0,8.0,85,0.00,,,0.00,WUHU216DAVISVP2,2013-05-04 13:00:00,
2013-05-04 09:03:00,51.1,46.7,30.18,ENE,61,0.0,8.0,85,0.00,,,0.00,WUHU216DAVISVP2,2013-05-04 13:03:00,
2013-05-04 09:08:00,51.3,46.9,30.18,East,88,0.0,7.0,85,0.00,,,0.00,WUHU216DAVISVP2,2013-05-04 13:08:00,
2013-05-04 09:13:00,51.3,46.9,30.18,ESE,123,1.0,6.0,85,0.00,,,0.00,WUHU216DAVISVP2,2013-05-04 13:13:00,
2013-05-04 09:18:00,51.3,46.9,30.18,North,354,0.0,7.0,85,0.00,,,0.00,WUHU216DAVISVP2,2013-05-04 13:18:00,
2013-05-04 09:23:00,51.3,46.9,30.18,NE,52,2.0,7.0,85,0.00,,,0.00,WUHU216DAVISVP2,2013-05-04 13:23:00,
2013-05-04 09:28:00,51.6,46.9,30.17,East,79,1.0,6.0,84,0.00,,,0.00,WUHU216DAVISVP2,2013-05-04 13:28:00,
2013-05-04 09:33:00,51.6,46.9,30.17,NNE,16,4.0,7.0,84,0.00,,,0.00,WUHU216DAVISVP2,2013-05-04 13:33:00,
2013-05-04 09:39:00,51.7,47.3,30.17,NNE,14,0.0,7.0,85,0.00,,,0.00,WUHU216DAVISVP2,2013-05-04 13:39:00,
2013-05-04 09:44:00,51.9,47.2,30.17,ESE,123,0.0,4.0,84,0.00,,,0.00,WUHU216DAVISVP2,2013-05-04 13:44:00,
2013-05-04 09:49:00,51.9,47.2,30.17,NNW,330,0.0,4.0,84,0.00,,,0.00,WUHU216DAVISVP2,2013-05-04 13:49:00,
2013-05-04 09:54:00,51.9,47.2,30.17,East,79,0.0,7.0,84,0.00,,,0.00,WUHU216DAVISVP2,2013-05-04 13:54:00,
2013-05-04 09:59:00,51.9,46.9,30.17,ENE,66,0.0,7.0,83,0.00,,,0.00,WUHU216DAVISVP2,2013-05-04 13:59:00,
2013-05-04 10:04:00,52.2,47.2,30.17,ESE,104,6.0,7.0,83,0.00,,,0.00,WUHU216DAVISVP2,2013-05-04 14:04:00,
2013-05-04 10:08:00,52.3,47.3,30.17,East,95,0.0,7.0,83,0.00,,,0.00,WUHU216DAVISVP2,2013-05-04 14:08:00,
2013-05-04 10:13:00,52.5,47.2,30.17,East,80,0.0,7.0,82,0.00,,,0.00,WUHU216DAVISVP2,2013-05-04 14:13:00,
2013-05-04 10:18:00,52.8,47.2,30.17,East,92,4.0,7.0,81,0.00,,,0.00,WUHU216DAVISVP2,2013-05-04 14:18:00,
2013-05-04 10:23:00,52.9,47.3,30.17,WNW,282,4.0,8.0,81,0.00,,,0.00,WUHU216DAVISVP2,2013-05-04 14:23:00,
2013-05-04 10:28:00,53.2,47.6,30.17,SW,224,1.0,8.0,81,0.00,,,0.00,WUHU216DAVISVP2,2013-05-04 14:28:00,
2013-05-04 10:34:00,54.1,48.1,30.17,ESE,113,2.0,7.0,80,0.00,,,0.00,WUHU216DAVISVP2,2013-05-04 14:34:00,
2013-05-04 10:39:00,54.5,48.5,30.17,SSE,150,2.0,7.0,80,0.00,,,0.00,WUHU216DAVISVP2,2013-05-04 14:39:00,
2013-05-04 10:43:00,55.0,49.0,30.16,NE,44,1.0,7.0,80,0.00,,,0.00,WUHU216DAVISVP2,2013-05-04 14:43:00,
2013-05-04 10:49:00,54.7,48.0,30.16,ESE,106,4.0,7.0,78,0.00,,,0.00,WUHU216DAVISVP2,2013-05-04 14:49:00,
2013-05-04 10:53:00,54.7,48.4,30.16,NNE,31,0.0,8.0,79,0.00,,,0.00,WUHU216DAVISVP2,2013-05-04 14:53:00,
2013-05-04 10:58:00,54.7,48.0,30.17,ENE,61,2.0,8.0,78,0.00,,,0.00,WUHU216DAVISVP2,2013-05-04 14:58:00,
2013-05-04 11:03:00,54.4,48.1,30.17,East,92,0.0,6.0,79,0.00,,,0.00,WUHU216DAVISVP2,2013-05-04 15:03:00,
2013-05-04 11:08:00,54.1,47.8,30.17,East,90,0.0,6.0,79,0.00,,,0.00,WUHU216DAVISVP2,2013-05-04 15:08:00,
2013-05-04 11:13:00,54.1,47.8,30.17,ENE,76,0.0,6.0,79,0.00,,,0.00,WUHU216DAVISVP2,2013-05-04 15:13:00,
2013-05-04 11:18:00,54.4,48.1,30.17,East,97,2.0,7.0,79,0.00,,,0.00,WUHU216DAVISVP2,2013-05-04 15:18:00,
2013-05-04 11:23:00,54.7,48.4,30.17,ESE,107,4.0,7.0,79,0.00,,,0.00,WUHU216DAVISVP2,2013-05-04 15:23:00,
2013-05-04 11:28:00,54.7,48.4,30.17,East,89,2.0,7.0,79,0.00,,,0.00,WUHU216DAVISVP2,2013-05-04 15:28:00,
2013-05-04 11:33:00,54.8,48.5,30.17,East,100,0.0,6.0,79,0.00,,,0.00,WUHU216DAVISVP2,2013-05-04 15:33:00,
2013-05-04 11:38:00,55.0,48.3,30.17,East,93,4.0,8.0,78,0.00,,,0.00,WUHU216DAVISVP2,2013-05-04 15:38:00,
2013-05-04 11:43:00,55.3,49.0,30.16,ESE,102,1.0,8.0,79,0.00,,,0.00,WUHU216DAVISVP2,2013-05-04 15:43:00,
2013-05-04 11:48:00,56.0,49.6,30.16,West,270,0.0,7.0,79,0.00,,,0.00,WUHU216DAVISVP2,2013-05-04 15:48:00,
2013-05-04 11:53:00,56.3,49.3,30.16,ESE,104,0.0,7.0,77,0.00,,,0.00,WUHU216DAVISVP2,2013-05-04 15:53:00,
2013-05-04 11:58:00,56.5,49.5,30.16,SE,145,6.0,8.0,77,0.00,,,0.00,WUHU216DAVISVP2,2013-05-04 15:58:00,
2013-05-04 12:03:00,56.7,50.0,30.16,East,86,4.0,8.0,78,0.00,,,0.00,WUHU216DAVISVP2,2013-05-04 16:03:00,
2013-05-04 12:08:00,57.0,49.9,30.16,ENE,72,0.0,8.0,77,0.00,,,0.00,WUHU216DAVISVP2,2013-05-04 16:08:00,
2013-05-04 12:13:00,57.2,50.1,30.15,NNW,344,0.0,8.0,77,0.00,,,0.00,WUHU216DAVISVP2,2013-05-04 16:13:00,
2013-05-04 12:18:00,57.6,50.2,30.15,East,99,0.0,7.0,76,0.00,,,0.00,WUHU216DAVISVP2,2013-05-04 16:18:00,
2013-05-04 12:23:00,57.8,50.4,30.15,SE,143,0.0,7.0,76,0.00,,,0.00,WUHU216DAVISVP2,2013-05-04 16:23:00,
2013-05-04 12:28:00,58.0,50.6,30.15,NNW,335,7.0,8.0,76,0.00,,,0.00,WUHU216DAVISVP2,2013-05-04 16:28:00,
2013-05-04 12:33:00,58.1,50.3,30.15,North,357,6.0,8.0,75,0.00,,,0.00,WUHU216DAVISVP2,2013-05-04 16:33:00,
2013-05-04 12:38:00,58.3,50.5,30.15,East,95,1.0,7.0,75,0.00,,,0.00,WUHU216DAVISVP2,2013-05-04 16:38:00,
2013-05-04 12:43:00,58.6,50.8,30.14,NNW,329,0.0,7.0,75,0.00,,,0.00,WUHU216DAVISVP2,2013-05-04 16:43:00,
2013-05-04 12:48:00,58.4,50.3,30.14,East,79,0.0,9.0,74,0.00,,,0.00,WUHU216DAVISVP2,2013-05-04 16:48:00,
2013-05-04 12:53:00,58.7,50.9,30.14,South,175,0.0,9.0,75,0.00,,,0.00,WUHU216DAVISVP2,2013-05-04 16:53:00,
2013-05-04 12:58:00,59.3,51.5,30.14,NNW,344,1.0,6.0,75,0.00,,,0.00,WUHU216DAVISVP2,2013-05-04 16:58:00,
2013-05-04 13:03:00,59.5,51.3,30.14,East,80,2.0,6.0,74,0.00,,,0.00,WUHU216DAVISVP2,2013-05-04 17:03:00,
2013-05-04 13:08:00,59.3,50.8,30.14,East,97,1.0,9.0,73,0.00,,,0.00,WUHU216DAVISVP2,2013-05-04 17:08:00,
2013-05-04 13:13:00,59.5,51.3,30.13,NW,306,1.0,9.0,74,0.00,,,0.00,WUHU216DAVISVP2,2013-05-04 17:13:00,
2013-05-04 13:18:00,59.8,51.6,30.13,North,0,1.0,7.0,74,0.00,,,0.00,WUHU216DAVISVP2,2013-05-04 17:18:00,
2013-05-04 13:23:00,59.9,51.3,30.13,ENE,69,4.0,7.0,73,0.00,,,0.00,WUHU216DAVISVP2,2013-05-04 17:23:00,
2013-05-04 13:29:00,60.1,51.5,30.12,WNW,298,4.0,9.0,73,0.01,,,0.01,WUHU216DAVISVP2,2013-05-04 17:29:00,
2013-05-04 13:34:00,60.2,51.6,30.12,ENE,73,2.0,9.0,73,0.01,,,0.01,WUHU216DAVISVP2,2013-05-04 17:34:00,
2013-05-04 13:39:00,60.4,51.8,30.12,North,0,0.0,7.0,73,0.01,,,0.01,WUHU216DAVISVP2,2013-05-04 17:39:00,
2013-05-04 13:44:00,60.2,51.6,30.12,East,82,0.0,6.0,73,0.01,,,0.01,WUHU216DAVISVP2,2013-05-04 17:44:00,
2013-05-04 13:49:00,60.4,51.8,30.12,East,80,1.0,6.0,73,0.01,,,0.01,WUHU216DAVISVP2,2013-05-04 17:49:00,
2013-05-04 13:54:00,60.1,51.5,30.12,East,86,1.0,7.0,73,0.01,,,0.01,WUHU216DAVISVP2,2013-05-04 17:54:00,
2013-05-04 13:59:00,60.2,50.9,30.12,SE,128,0.0,8.0,71,0.01,,,0.01,WUHU216DAVISVP2,2013-05-04 17:59:00,
2013-05-04 14:04:00,60.2,51.3,30.12,East,86,0.0,8.0,72,0.01,,,0.01,WUHU216DAVISVP2,2013-05-04 18:04:00,
2013-05-04 14:09:00,60.5,51.6,30.12,North,350,1.0,6.0,72,0.01,,,0.01,WUHU216DAVISVP2,2013-05-04 18:09:00,
2013-05-04 14:14:00,60.4,51.5,30.12,NNE,28,0.0,6.0,72,0.01,,,0.01,WUHU216DAVISVP2,2013-05-04 18:14:00,
2013-05-04 14:19:00,59.9,51.0,30.12,ENE,62,4.0,7.0,72,0.01,,,0.01,WUHU216DAVISVP2,2013-05-04 18:19:00,
2013-05-04 14:24:00,59.8,50.9,30.12,NNW,335,0.0,9.0,72,0.01,,,0.01,WUHU216DAVISVP2,2013-05-04 18:24:00,
2013-05-04 14:29:00,59.9,51.3,30.11,East,90,0.0,9.0,73,0.00,,,0.01,WUHU216DAVISVP2,2013-05-04 18:29:00,
2013-05-04 14:34:00,60.2,51.6,30.11,NNE,24,2.0,6.0,73,0.00,,,0.01,WUHU216DAVISVP2,2013-05-04 18:34:00,
2013-05-04 14:39:00,60.2,51.3,30.11,ENE,64,0.0,6.0,72,0.00,,,0.01,WUHU216DAVISVP2,2013-05-04 18:39:00,
2013-05-04 14:44:00,60.2,51.6,30.11,ENE,64,2.0,4.0,73,0.00,,,0.01,WUHU216DAVISVP2,2013-05-04 18:44:00,
2013-05-04 14:49:00,60.2,51.6,30.11,North,354,0.0,7.0,73,0.00,,,0.01,WUHU216DAVISVP2,2013-05-04 18:49:00,
2013-05-04 14:54:00,60.1,51.5,30.11,NNW,340,0.0,7.0,73,0.00,,,0.01,WUHU216DAVISVP2,2013-05-04 18:54:00,
2013-05-04 14:59:00,60.1,51.5,30.11,ENE,75,1.0,7.0,73,0.00,,,0.01,WUHU216DAVISVP2,2013-05-04 18:59:00,
2013-05-04 15:04:00,60.1,51.9,30.11,North,353,0.0,7.0,74,0.00,,,0.01,WUHU216DAVISVP2,2013-05-04 19:04:00,
2013-05-04 15:09:00,60.4,52.2,30.11,NNW,333,2.0,8.0,74,0.00,,,0.01,WUHU216DAVISVP2,2013-05-04 19:09:00,
2013-05-04 15:14:00,60.5,52.3,30.10,ENE,71,0.0,8.0,74,0.00,,,0.01,WUHU216DAVISVP2,2013-05-04 19:14:00,
2013-05-04 15:19:00,60.9,52.7,30.10,North,8,0.0,8.0,74,0.00,,,0.01,WUHU216DAVISVP2,2013-05-04 19:19:00,
2013-05-04 15:24:00,60.9,51.9,30.10,ENE,64,2.0,8.0,72,0.00,,,0.01,WUHU216DAVISVP2,2013-05-04 19:24:00,
2013-05-04 15:29:00,60.5,51.9,30.10,NE,45,0.0,9.0,73,0.00,,,0.01,WUHU216DAVISVP2,2013-05-04 19:29:00,
2013-05-04 15:34:00,60.7,52.1,30.10,ESE,102,4.0,9.0,73,0.00,,,0.01,WUHU216DAVISVP2,2013-05-04 19:34:00,
2013-05-04 15:39:00,60.7,52.1,30.10,East,90,0.0,7.0,73,0.00,,,0.01,WUHU216DAVISVP2,2013-05-04 19:39:00,
2013-05-04 15:44:00,60.5,51.9,30.09,NW,308,0.0,4.0,73,0.00,,,0.01,WUHU216DAVISVP2,2013-05-04 19:44:00,
2013-05-04 15:49:00,60.2,52.0,30.09,East,100,0.0,6.0,74,0.00,,,0.01,WUHU216DAVISVP2,2013-05-04 19:49:00,
2013-05-04 15:54:00,59.6,51.4,30.09,ENE,76,0.0,7.0,74,0.00,,,0.01,WUHU216DAVISVP2,2013-05-04 19:54:00,
2013-05-04 15:59:00,59.5,51.7,30.09,East,88,0.0,7.0,75,0.00,,,0.01,WUHU216DAVISVP2,2013-05-04 19:59:00,
2013-05-04 16:04:00,59.9,52.1,30.09,NNW,333,0.0,7.0,75,0.00,,,0.01,WUHU216DAVISVP2,2013-05-04 20:04:00,
2013-05-04 16:09:00,60.2,52.3,30.09,NE,41,0.0,9.0,75,0.00,,,0.01,WUHU216DAVISVP2,2013-05-04 20:09:00,
2013-05-04 16:14:00,60.5,52.6,30.08,NE,56,2.0,9.0,75,0.00,,,0.01,WUHU216DAVISVP2,2013-05-04 20:14:00,
2013-05-04 16:19:00,60.7,52.5,30.08,East,86,2.0,7.0,74,0.00,,,0.01,WUHU216DAVISVP2,2013-05-04 20:19:00,
2013-05-04 16:24:00,60.4,52.2,30.08,NE,55,0.0,7.0,74,0.00,,,0.01,WUHU216DAVISVP2,2013-05-04 20:24:00,
2013-05-04 16:29:00,60.7,52.8,30.08,North,6,0.0,6.0,75,0.00,,,0.01,WUHU216DAVISVP2,2013-05-04 20:29:00,
2013-05-04 16:34:00,60.9,53.0,30.08,ENE,68,0.0,6.0,75,0.00,,,0.01,WUHU216DAVISVP2,2013-05-04 20:34:00,
2013-05-04 16:39:00,60.7,52.1,30.08,East,92,2.0,7.0,73,0.00,,,0.01,WUHU216DAVISVP2,2013-05-04 20:39:00,
2013-05-04 16:44:00,60.5,52.6,30.08,East,80,6.0,7.0,75,0.00,,,0.01,WUHU216DAVISVP2,2013-05-04 20:44:00,
2013-05-04 16:49:00,60.7,52.5,30.08,ENE,62,0.0,7.0,74,0.00,,,0.01,WUHU216DAVISVP2,2013-05-04 20:49:00,
2013-05-04 16:54:00,61.3,53.1,30.08,ENE,69,2.0,7.0,74,0.00,,,0.01,WUHU216DAVISVP2,2013-05-04 20:54:00,
2013-05-04 16:59:00,61.3,52.7,30.07,ENE,68,2.0,6.0,73,0.00,,,0.01,WUHU216DAVISVP2,2013-05-04 20:59:00,
2013-05-04 17:04:00,61.3,52.3,30.07,NE,56,1.0,9.0,72,0.00,,,0.01,WUHU216DAVISVP2,2013-05-04 21:04:00,
2013-05-04 17:09:00,61.5,52.5,30.07,NE,56,0.0,9.0,72,0.00,,,0.01,WUHU216DAVISVP2,2013-05-04 21:09:00,
2013-05-04 17:14:00,61.8,52.4,30.07,ESE,102,0.0,8.0,71,0.00,,,0.01,WUHU216DAVISVP2,2013-05-04 21:14:00,
2013-05-04 17:19:00,62.0,52.2,30.07,East,95,2.0,7.0,70,0.00,,,0.01,WUHU216DAVISVP2,2013-05-04 21:19:00,
2013-05-04 17:24:00,61.6,52.2,30.07,ENE,76,0.0,8.0,71,0.00,,,0.01,WUHU216DAVISVP2,2013-05-04 21:24:00,
2013-05-04 17:29:00,61.2,52.2,30.07,NE,55,1.0,8.0,72,0.00,,,0.01,WUHU216DAVISVP2,2013-05-04 21:29:00,
2013-05-04 17:34:00,61.0,52.0,30.07,North,0,2.0,7.0,72,0.00,,,0.01,WUHU216DAVISVP2,2013-05-04 21:34:00,
2013-05-04 17:39:00,60.7,51.7,30.07,ENE,73,0.0,8.0,72,0.00,,,0.01,WUHU216DAVISVP2,2013-05-04 21:39:00,
2013-05-04 17:43:00,60.5,51.6,30.08,ESE,110,2.0,8.0,72,0.00,,,0.01,WUHU216DAVISVP2,2013-05-04 21:43:00,
2013-05-04 17:48:00,60.1,51.5,30.08,ENE,64,1.0,7.0,73,0.00,,,0.01,WUHU216DAVISVP2,2013-05-04 21:48:00,
2013-05-04 17:53:00,59.8,51.2,30.08,ENE,64,2.0,8.0,73,0.00,,,0.01,WUHU216DAVISVP2,2013-05-04 21:53:00,
2013-05-04 17:58:00,59.5,51.0,30.08,ENE,71,7.0,8.0,73,0.00,,,0.01,WUHU216DAVISVP2,2013-05-04 21:58:00,
2013-05-04 18:03:00,59.3,51.1,30.08,ENE,65,0.0,7.0,74,0.00,,,0.01,WUHU216DAVISVP2,2013-05-04 22:03:00,
2013-05-04 18:08:00,59.3,51.5,30.08,ENE,69,0.0,4.0,75,0.00,,,0.01,WUHU216DAVISVP2,2013-05-04 22:08:00,
2013-05-04 18:13:00,59.3,51.5,30.08,ENE,69,0.0,4.0,75,0.00,,,0.01,WUHU216DAVISVP2,2013-05-04 22:13:00,
2013-05-04 18:18:00,59.3,51.5,30.08,East,85,0.0,7.0,75,0.00,,,0.01,WUHU216DAVISVP2,2013-05-04 22:18:00,
2013-05-04 18:23:00,59.3,51.5,30.08,East,85,2.0,7.0,75,0.00,,,0.01,WUHU216DAVISVP2,2013-05-04 22:23:00,
2013-05-04 18:28:00,59.3,51.5,30.08,East,85,0.0,2.0,75,0.00,,,0.01,WUHU216DAVISVP2,2013-05-04 22:28:00,
2013-05-04 18:33:00,59.2,51.4,30.08,East,88,0.0,7.0,75,0.00,,,0.01,WUHU216DAVISVP2,2013-05-04 22:33:00,
2013-05-04 18:39:00,58.9,51.4,30.08,East,88,0.0,7.0,76,0.00,,,0.01,WUHU216DAVISVP2,2013-05-04 22:39:00,
2013-05-04 18:44:00,58.6,51.1,30.08,ENE,69,1.0,4.0,76,0.00,,,0.01,WUHU216DAVISVP2,2013-05-04 22:44:00,
2013-05-04 18:49:00,58.4,51.3,30.08,East,92,0.0,6.0,77,0.00,,,0.01,WUHU216DAVISVP2,2013-05-04 22:49:00,
2013-05-04 18:54:00,58.4,51.3,30.08,East,79,0.0,6.0,77,0.00,,,0.01,WUHU216DAVISVP2,2013-05-04 22:54:00,
2013-05-04 18:59:00,58.3,51.2,30.08,East,85,2.0,4.0,77,0.00,,,0.01,WUHU216DAVISVP2,2013-05-04 22:59:00,
2013-05-04 19:04:00,58.1,51.0,30.08,East,100,0.0,6.0,77,0.00,,,0.01,WUHU216DAVISVP2,2013-05-04 23:04:00,
2013-05-04 19:09:00,58.1,51.0,30.08,NE,40,0.0,6.0,77,0.00,,,0.01,WUHU216DAVISVP2,2013-05-04 23:09:00,
2013-05-04 19:14:00,58.1,51.0,30.08,NE,52,0.0,2.0,77,0.00,,,0.01,WUHU216DAVISVP2,2013-05-04 23:14:00,
2013-05-04 19:19:00,58.0,50.9,30.08,North,7,0.0,6.0,77,0.00,,,0.01,WUHU216DAVISVP2,2013-05-04 23:19:00,
2013-05-04 19:24:00,57.8,50.7,30.08,NE,56,0.0,6.0,77,0.00,,,0.01,WUHU216DAVISVP2,2013-05-04 23:24:00,
2013-05-04 19:29:00,57.8,51.1,30.08,ENE,61,0.0,4.0,78,0.00,,,0.01,WUHU216DAVISVP2,2013-05-04 23:29:00,
2013-05-04 19:34:00,57.8,51.1,30.08,ENE,62,0.0,4.0,78,0.00,,,0.01,WUHU216DAVISVP2,2013-05-04 23:34:00,
2013-05-04 19:39:00,57.6,50.9,30.08,ENE,69,0.0,6.0,78,0.00,,,0.01,WUHU216DAVISVP2,2013-05-04 23:39:00,
2013-05-04 19:44:00,57.6,50.9,30.08,ENE,69,0.0,6.0,78,0.00,,,0.01,WUHU216DAVISVP2,2013-05-04 23:44:00,
2013-05-04 19:49:00,57.6,50.9,30.08,ENE,68,0.0,0.0,78,0.00,,,0.01,WUHU216DAVISVP2,2013-05-04 23:49:00,
2013-05-04 19:54:00,57.6,50.9,30.08,ENE,62,0.0,2.0,78,0.00,,,0.01,WUHU216DAVISVP2,2013-05-04 23:54:00,
2013-05-04 19:59:00,57.5,50.8,30.09,ENE,62,0.0,2.0,78,0.00,,,0.01,WUHU216DAVISVP2,2013-05-04 23:59:00,
2013-05-04 20:04:00,57.5,50.8,30.09,NE,44,0.0,0.0,78,0.00,,,0.01,WUHU216DAVISVP2,2013-05-05 00:04:00,
2013-05-04 20:09:00,57.3,50.9,30.09,NE,44,0.0,0.0,79,0.00,,,0.01,WUHU216DAVISVP2,2013-05-05 00:09:00,
2013-05-04 20:14:00,57.3,50.9,30.09,ENE,65,1.0,6.0,79,0.00,,,0.01,WUHU216DAVISVP2,2013-05-05 00:14:00,
2013-05-04 20:19:00,57.3,50.9,30.09,ENE,65,0.0,6.0,79,0.00,,,0.01,WUHU216DAVISVP2,2013-05-05 00:19:00,
2013-05-04 20:24:00,57.2,50.8,30.09,ENE,65,0.0,0.0,79,0.00,,,0.01,WUHU216DAVISVP2,2013-05-05 00:24:00,
2013-05-04 20:29:00,57.2,50.8,30.09,ENE,65,0.0,0.0,79,0.00,,,0.01,WUHU216DAVISVP2,2013-05-05 00:29:00,
2013-05-04 20:34:00,57.2,50.8,30.09,ENE,61,0.0,4.0,79,0.00,,,0.01,WUHU216DAVISVP2,2013-05-05 00:34:00,
2013-05-04 20:40:00,57.2,50.8,30.09,ENE,62,0.0,4.0,79,0.00,,,0.01,WUHU216DAVISVP2,2013-05-05 00:40:00,
2013-05-04 20:44:00,57.0,50.6,30.09,ENE,62,0.0,1.0,79,0.00,,,0.01,WUHU216DAVISVP2,2013-05-05 00:44:00,
2013-05-04 20:49:00,57.0,50.6,30.09,ENE,59,0.0,4.0,79,0.00,,,0.01,WUHU216DAVISVP2,2013-05-05 00:49:00,
2013-05-04 20:54:00,56.9,50.5,30.09,ENE,59,0.0,4.0,79,0.00,,,0.01,WUHU216DAVISVP2,2013-05-05 00:54:00,
2013-05-04 20:59:00,56.9,50.5,30.09,ENE,59,0.0,1.0,79,0.00,,,0.01,WUHU216DAVISVP2,2013-05-05 00:59:00,
2013-05-04 21:04:00,56.9,50.5,30.09,ENE,59,0.0,2.0,79,0.00,,,0.01,WUHU216DAVISVP2,2013-05-05 01:04:00,
2013-05-04 21:09:00,56.7,50.0,30.09,East,90,2.0,6.0,78,0.00,,,0.01,WUHU216DAVISVP2,2013-05-05 01:09:00,
2013-05-04 21:14:00,56.7,50.0,30.10,ESE,121,0.0,6.0,78,0.00,,,0.01,WUHU216DAVISVP2,2013-05-05 01:14:00,
2013-05-04 21:19:00,56.6,49.9,30.10,East,100,0.0,2.0,78,0.00,,,0.01,WUHU216DAVISVP2,2013-05-05 01:19:00,
2013-05-04 21:24:00,56.6,49.9,30.10,ENE,69,0.0,2.0,78,0.00,,,0.01,WUHU216DAVISVP2,2013-05-05 01:24:00,
2013-05-04 21:29:00,56.6,49.9,30.10,NE,56,0.0,4.0,78,0.00,,,0.01,WUHU216DAVISVP2,2013-05-05 01:29:00,
2013-05-04 21:34:00,56.6,49.5,30.10,ENE,62,0.0,4.0,77,0.00,,,0.01,WUHU216DAVISVP2,2013-05-05 01:34:00,
2013-05-04 21:39:00,56.6,49.5,30.10,East,95,0.0,6.0,77,0.00,,,0.01,WUHU216DAVISVP2,2013-05-05 01:39:00,
2013-05-04 21:44:00,56.6,49.5,30.11,East,92,0.0,9.0,77,0.00,,,0.01,WUHU216DAVISVP2,2013-05-05 01:44:00,
2013-05-04 21:49:00,56.5,49.1,30.11,East,89,0.0,9.0,76,0.00,,,0.01,WUHU216DAVISVP2,2013-05-05 01:49:00,
2013-05-04 21:54:00,56.5,49.1,30.11,ENE,75,0.0,6.0,76,0.00,,,0.01,WUHU216DAVISVP2,2013-05-05 01:54:00,
2013-05-04 21:59:00,56.3,48.9,30.10,ESE,120,0.0,4.0,76,0.00,,,0.01,WUHU216DAVISVP2,2013-05-05 01:59:00,
2013-05-04 22:04:00,56.2,48.8,30.10,East,89,0.0,2.0,76,0.00,,,0.01,WUHU216DAVISVP2,2013-05-05 02:04:00,
2013-05-04 22:09:00,56.2,48.8,30.10,NE,49,0.0,6.0,76,0.00,,,0.01,WUHU216DAVISVP2,2013-05-05 02:09:00,
2013-05-04 22:14:00,56.0,48.5,30.10,ENE,58,0.0,6.0,76,0.00,,,0.01,WUHU216DAVISVP2,2013-05-05 02:14:00,
2013-05-04 22:19:00,56.0,48.5,30.10,NE,51,6.0,7.0,76,0.00,,,0.01,WUHU216DAVISVP2,2013-05-05 02:19:00,
2013-05-04 22:24:00,55.9,48.4,30.10,ENE,62,0.0,7.0,76,0.00,,,0.01,WUHU216DAVISVP2,2013-05-05 02:24:00,
2013-05-04 22:30:00,55.9,48.5,30.10,ENE,65,0.0,7.0,76,0.00,,,0.01,WUHU216DAVISVP2,2013-05-05 02:30:00,
2013-05-04 22:35:00,55.7,48.3,30.10,ENE,73,1.0,8.0,76,0.00,,,0.01,WUHU216DAVISVP2,2013-05-05 02:35:00,
2013-05-04 22:40:00,55.6,48.2,30.10,NE,44,0.0,8.0,76,0.00,,,0.01,WUHU216DAVISVP2,2013-05-05 02:40:00,
2013-05-04 22:45:00,55.6,48.6,30.10,NE,45,0.0,8.0,77,0.00,,,0.01,WUHU216DAVISVP2,2013-05-05 02:45:00,
2013-05-04 22:50:00,55.4,48.3,30.10,NNE,27,0.0,6.0,77,0.00,,,0.01,WUHU216DAVISVP2,2013-05-05 02:50:00,
2013-05-04 22:55:00,55.3,48.3,30.10,West,272,2.0,6.0,77,0.00,,,0.01,WUHU216DAVISVP2,2013-05-05 02:55:00,
2013-05-04 23:00:00,55.3,48.3,30.10,SSW,199,0.0,7.0,77,0.00,,,0.01,WUHU216DAVISVP2,2013-05-05 03:00:00,
2013-05-04 23:05:00,55.1,48.1,30.10,ENE,73,0.0,7.0,77,0.00,,,0.01,WUHU216DAVISVP2,2013-05-05 03:05:00,
2013-05-04 23:10:00,55.1,48.1,30.10,ENE,78,6.0,6.0,77,0.00,,,0.01,WUHU216DAVISVP2,2013-05-05 03:10:00,
2013-05-04 23:15:00,55.0,47.9,30.10,ENE,76,0.0,7.0,77,0.00,,,0.01,WUHU216DAVISVP2,2013-05-05 03:15:00,
2013-05-04 23:20:00,55.0,48.0,30.10,NE,45,0.0,7.0,77,0.00,,,0.01,WUHU216DAVISVP2,2013-05-05 03:20:00,
2013-05-04 23:25:00,54.8,47.8,30.10,East,88,0.0,7.0,77,0.00,,,0.01,WUHU216DAVISVP2,2013-05-05 03:25:00,
2013-05-04 23:30:00,54.8,47.8,30.10,ESE,113,0.0,7.0,77,0.00,,,0.01,WUHU216DAVISVP2,2013-05-05 03:30:00,
2013-05-04 23:35:00,54.7,47.6,30.10,ENE,76,0.0,7.0,77,0.00,,,0.01,WUHU216DAVISVP2,2013-05-05 03:35:00,
2013-05-04 23:40:00,54.7,47.7,30.10,ENE,76,0.0,7.0,77,0.00,,,0.01,WUHU216DAVISVP2,2013-05-05 03:40:00,
2013-05-04 23:45:00,54.7,47.7,30.10,East,86,1.0,7.0,77,0.00,,,0.01,WUHU216DAVISVP2,2013-05-05 03:45:00,
2013-05-04 23:50:00,54.5,47.5,30.10,NE,55,2.0,7.0,77,0.00,,,0.01,WUHU216DAVISVP2,2013-05-05 03:50:00,
2013-05-04 23:55:00,54.5,47.4,30.10,ENE,59,4.0,7.0,77,0.00,,,0.01,WUHU216DAVISVP2,2013-05-05 03:55:00,